Location: Bedwyn
(51.3667°N, 1.6000°W)
Time: 00:28:40
(UTC+00:00)

Daily predictions for brighter satellites

Satellite Brightness Start Highest point End
(mag) Time Altitude Azimuth Time Altitude Azimuth Time Altitude Azimuth
ATLAS CENTAUR R/B 3.0 00:01:11 10° NW 00:02:55 25° NNE 00:05:24 10° E
Lacrosse 5 3.8 00:00:45 10° W 00:02:58 13° WSW 00:03:12 13° WSW
STARLINK-1226 3.2 00:00:01 10° WNW 00:03:07 66° N 00:06:14 10° E
STARLINK-1215 3.2 00:00:57 10° WNW 00:04:05 66° N 00:07:12 10° E
STARLINK-1225 3.5 00:00:10 10° WSW 00:04:19 87° SSE 00:08:29 10° ENE
STARLINK-1217 3.2 00:02:44 10° WNW 00:05:51 67° N 00:08:57 10° E
Cosmos 292 Rocket 3.7 00:03:39 32° SSW 00:05:54 81° ESE 00:10:47 10° NNE
STARLINK-1229 3.2 00:03:39 10° WNW 00:06:46 67° N 00:09:53 10° E
STARLINK-1271 3.9 00:02:59 10° W 00:07:08 69° N 00:11:16 10° E
STARLINK-1104 3.9 00:03:35 10° WNW 00:07:32 44° SSW 00:08:13 40° S
STARLINK-1270 3.2 00:04:31 10° WNW 00:07:38 67° N 00:10:45 10° E
S3M 4.1 00:03:08 10° NNW 00:09:12 64° W 00:12:36 27° SSW
STARLINK-1230 3.5 00:05:08 10° WSW 00:09:17 90° SSE 00:13:27 10° ENE
STARLINK-1189 3.1 00:06:22 10° WNW 00:09:29 68° N 00:12:35 10° E
Cosmos 1726 2.0 00:06:08 10° NNW 00:09:51 78° W 00:10:54 44° S
STARLINK-1188 3.1 00:07:14 10° WNW 00:10:21 68° N 00:13:29 10° E
STARLINK-1235 3.0 00:07:57 10° WNW 00:11:03 73° NNE 00:14:08 10° E
Cosmos 1655 Rocket 4.0 00:07:30 27° SSW 00:11:09 81° W 00:17:27 10° N
STARLINK-1187 3.0 00:08:21 10° WNW 00:11:27 71° N 00:14:33 10° E
STARLINK-1154 3.9 00:07:59 10° W 00:12:07 69° N 00:16:16 10° E
GEOS 3 Rocket 3.7 00:07:39 13° SE 00:12:21 78° NE 00:17:41 10° NW
STARLINK-1144 4.0 00:08:35 10° WNW 00:12:30 41° SSW 00:13:00 39° SSW
SL-27 R/B 3.6 00:09:26 10° NW 00:12:39 30° WSW 00:13:10 28° WSW
STARLINK-1191 3.1 00:09:43 10° WNW 00:12:49 69° N 00:15:55 10° E
Cosmos 2228 3.5 00:09:18 10° N 00:13:30 54° ENE 00:15:32 27° SE
SJ 16-02 4.3 00:11:40 10° NNE 00:13:38 13° NE 00:15:36 10° ENE
STARLINK-1221 3.1 00:10:35 10° WNW 00:13:41 69° N 00:16:48 10° E
COSMOS 2455 3.9 00:11:39 23° SSE 00:14:09 31° ESE 00:19:22 10° NE
STARLINK-1243 3.6 00:10:07 10° WSW 00:14:16 88° NNW 00:18:26 10° ENE
STARLINK-1222 3.1 00:11:29 10° WNW 00:14:35 69° N 00:17:41 10° E
Cosmos 2263 4.2 00:12:25 29° SSW 00:15:20 72° ESE 00:20:56 10° NNE
STARLINK-1214 3.1 00:12:24 10° WNW 00:15:30 70° N 00:18:36 10° E
STARLINK-1197 3.9 00:12:58 10° W 00:17:06 69° N 00:21:15 10° E
Meteor 2-15 Rocket 4.5 00:10:58 10° N 00:17:09 79° ENE 00:20:55 25° SSE
STARLINK-1103 4.1 00:13:34 10° WNW 00:17:27 39° SSW 00:17:46 38° SSW
Cosmos 1953 2.5 00:14:12 10° NNW 00:18:09 57° W 00:19:26 37° SSW
STARLINK-1236 3.6 00:15:06 10° WSW 00:19:15 85° NNW 00:23:25 10° ENE
Cosmos 1340 Rocket 2.8 00:15:43 10° NNW 00:19:44 72° W 00:21:08 39° S
STARLINK-1198 3.9 00:17:55 10° W 00:22:04 69° N 00:26:13 10° E
STARLINK-1101 4.2 00:18:34 10° WNW 00:22:24 36° SW 00:22:33 36° SSW
Cosmos 1300 4.5 00:19:21 10° NNE 00:22:35 25° ENE 00:25:04 14° ESE
Cosmos 1271 Rocket 3.5 00:21:39 28° SW 00:23:14 45° WNW 00:27:01 10° N
Cosmos 1461 4.2 00:19:41 10° WSW 00:23:40 39° NW 00:27:52 10° NNE
COSMOS 2487 2.4 00:22:41 10° NNW 00:26:10 78° ENE 00:27:17 40° SE
Cosmos 1833 4.3 00:21:17 10° NW 00:26:52 62° WSW 00:29:45 28° S
STARLINK-1199 3.9 00:22:57 10° W 00:27:06 69° N 00:31:15 10° E
STARLINK-1102 4.3 00:23:36 10° W 00:27:21 34° SW 00:27:21 34° SW
Cosmos 1992 Rocket 3.9 00:25:15 30° SSW 00:27:53 82° ESE 00:33:07 10° NNE
STARLINK-1269 3.6 00:25:03 10° W 00:29:12 81° NNW 00:33:22 10° ENE
Cosmos 1707 3.6 00:29:05 27° SW 00:30:42 41° WNW 00:34:27 10° N
STARLINK-1210 3.9 00:27:55 10° W 00:32:04 70° N 00:36:13 10° E
STARLINK-1111 4.4 00:28:35 10° W 00:32:07 32° SW 00:32:07 32° SW
STARLINK-1200 3.7 00:30:03 10° W 00:34:13 79° N 00:38:22 10° ENE
USA 215 4.4 00:33:07 21° SW 00:34:32 22° SW 00:39:27 10° WNW
Cosmos 1626 3.6 00:34:31 21° SE 00:36:00 27° E 00:39:11 10° NNE
Cosmos 1656 Rocket 3.7 00:33:52 28° SSW 00:36:53 75° ESE 00:42:28 10° NNE
Cosmos 1606 Rocket 3.4 00:32:34 10° N 00:36:55 88° WSW 00:38:48 33° S
STARLINK-1219 3.9 00:32:54 10° W 00:37:03 71° N 00:41:12 10° E
In-Cosmos 22 4.1 00:35:37 29° SSW 00:38:27 77° WNW 00:43:46 10° N
STARLINK-1192 3.7 00:35:02 10° W 00:39:11 77° NNW 00:43:22 10° ENE
FALCON 9 R/B 4.0 00:38:25 22° SSE 00:40:09 23° SSE 00:50:59 10° ESE
EO 1 Delta rocket 4.4 00:34:51 10° N 00:41:36 82° WNW 00:44:41 27° SSW
STARLINK-1211 3.8 00:37:53 10° WNW 00:42:02 72° N 00:46:11 10° E
CZ-4 R/B 3.8 00:38:08 10° NNE 00:43:02 85° ESE 00:45:23 31° SSW
STARLINK-1244 3.7 00:40:01 10° W 00:44:10 75° N 00:48:19 10° ENE
Cosmos 2297 Rocket 3.8 00:41:06 10° NNW 00:46:15 34° NE 00:51:23 10° ESE
APEX 4.4 00:42:04 22° SW 00:46:28 81° WNW 00:51:59 10° NNE
ERBS 4.2 00:43:59 10° WNW 00:47:00 31° N 00:50:03 10° ENE
STARLINK-1245 3.8 00:42:53 10° WNW 00:47:02 73° N 00:51:11 10° E
Cosmos 2292 Rocket 3.9 00:45:34 28° SW 00:47:30 49° WNW 00:51:01 10° N
STARLINK-1138 3.8 00:45:01 10° W 00:49:09 74° N 00:53:19 10° ENE
NOSS 3-2 (C) 4.4 00:42:16 10° NW 00:49:21 46° WSW 00:54:29 22° S
NOSS 7 (A) 4.4 00:48:54 53° SSW 00:49:31 80° SE 00:52:27 10° NE
SL-4 R/B 3.3 00:49:12 28° SSE 00:50:08 30° SE 00:54:17 10° E
NOSS 5 (C) 4.3 00:47:58 10° NW 00:51:03 87° NE 00:53:30 20° SE
PSLV R/B 3.6 00:47:01 10° NNE 00:51:42 88° WNW 00:53:53 31° SSW
STARLINK-1203 3.8 00:47:35 10° W 00:51:48 73° N 00:56:01 10° ENE
STARLINK-1233 3.8 00:47:51 10° WNW 00:52:01 74° N 00:56:10 10° E
STARLINK-1143 3.8 00:50:00 10° W 00:54:09 73° N 00:58:18 10° ENE
Aureole 3 4.0 00:50:48 10° NNW 00:54:14 32° W 00:55:01 28° WSW
Cosmos 1674 2.7 00:53:21 37° SSW 00:54:42 71° WNW 00:58:28 10° N
STARLINK-1204 3.8 00:52:51 10° WNW 00:57:01 75° N 01:01:10 10° E
Cosmos 1777 Rocket 3.9 00:52:59 10° NNW 00:58:14 88° WSW 01:01:54 20° SSE
Timation 2 Rocket 4.0 00:51:56 10° NNW 00:58:25 83° ENE 01:04:30 10° SSE
ATLAS CENTAUR R/B 2.1 00:56:56 30° SSE 00:58:26 40° ESE 01:02:20 10° NE
STARLINK-1241 3.8 00:54:58 10° W 00:59:08 72° N 01:03:17 10° ENE
NOSS 3-4 (A) 3.4 00:57:31 25° SSW 01:01:13 73° SE 01:07:38 10° NE
NOSS 3-4 (C) 3.4 00:57:38 25° SSW 01:01:18 72° SE 01:07:44 10° NE
STARLINK-1238 3.7 00:57:49 10° WNW 01:01:59 77° N 01:06:08 10° E
SL-16 R/B 3.1 00:56:24 10° SE 01:02:23 55° ENE 01:08:24 10° N
Spot 1 4.3 01:00:54 24° SSE 01:03:42 89° ENE 01:08:38 10° NNW
STARLINK-1239 3.9 00:59:58 10° W 01:04:07 71° N 01:08:16 10° E
ATLAS 3B R/B 2.7 00:58:45 10° NW 01:05:29 69° SW 01:12:26 10° SSE
STARLINK-1201 3.7 01:02:49 10° WNW 01:06:59 79° NNE 01:11:08 10° E
CENTAUR R/B 3.6 01:01:37 10° NW 01:09:06 43° WSW 01:14:47 20° S
STARLINK-1240 3.9 01:04:58 10° W 01:09:07 70° N 01:13:16 10° E
Cosmos 1244 Rocket 4.5 01:07:54 24° S 01:11:54 89° ESE 01:18:08 10° N
STARLINK-1206 3.7 01:07:48 10° WNW 01:11:58 81° NNE 01:16:08 10° E
BREEZE-M DEB (TANK) 2.5 01:12:38 26° SE 01:12:38 26° SE 01:14:07 10° E
Cosmos 1867 4.0 01:08:46 10° NW 01:13:55 43° WSW 01:16:44 24° S
Cosmos 1908 4.2 01:10:32 10° NNW 01:13:58 32° W 01:15:09 26° SW
STARLINK-1216 3.9 01:09:58 10° W 01:14:06 69° N 01:18:15 10° E
STARLINK-1205 3.6 01:12:47 10° WNW 01:16:57 83° NNE 01:21:06 10° ESE
Cosmos 1892 Rocket 3.5 01:14:51 29° SSW 01:17:05 78° W 01:21:31 10° N
Cosmos 1745 Rocket 4.4 01:12:45 18° SSE 01:17:18 55° E 01:23:16 10° NNE
STARLINK-1237 3.9 01:14:57 10° W 01:19:06 69° N 01:23:15 10° E
RESURS DK-1 3.1 01:19:17 25° SSE 01:21:10 42° ESE 01:25:06 10° NE
STARLINK-1218 3.6 01:17:45 10° WNW 01:21:55 85° NNE 01:26:05 10° ESE
Cosmos 2227 Rocket 3.1 01:16:32 10° NNW 01:22:05 49° NE 01:27:34 10° SE
Cosmos 1356 Rocket 3.7 01:18:39 10° N 01:22:47 67° ENE 01:25:49 18° SSE
STARLINK-1202 3.9 01:19:57 10° W 01:24:06 69° N 01:28:15 10° E
Cosmos 1726 Rocket 4.3 01:20:56 10° NNW 01:24:56 37° W 01:26:45 25° SW
Meteor 1-24 Rocket 3.6 01:22:03 24° SSW 01:25:20 89° WNW 01:30:47 10° NNE
Cosmos 2369 Rocket 3.5 01:20:56 10° WSW 01:26:04 34° NW 01:31:14 10° NNE
CZ-2D R/B 2.9 01:21:21 10° NNE 01:26:23 43° E 01:30:15 16° SSE
Helios 1B rocket 3.4 01:23:03 10° N 01:26:53 38° WNW 01:29:11 21° WSW
STARLINK-1254 3.6 01:22:44 10° WNW 01:26:55 88° NNE 01:31:04 10° ESE
Meteor 2-14 Rocket 4.5 01:24:00 23° SSW 01:28:01 78° W 01:34:12 10° N
ADEOS II 4.1 01:24:50 10° NE 01:28:43 21° E 01:32:36 10° SE
ATLAS 2AS CENTAUR R/B 3.1 01:23:17 16° SW 01:30:05 82° NW 01:38:01 10° NE
STARLINK-1231 3.6 01:27:44 10° WNW 01:31:55 90° SSE 01:36:04 10° ESE
STARLINK-1228 3.3 01:30:25 10° WNW 01:33:36 43° SSW 01:36:48 10° SE
CZ-4C R/B 3.5 01:30:46 20° SSE 01:33:40 89° SW 01:38:04 10° NNW
STARLINK-1246 3.9 01:29:55 10° W 01:34:04 69° N 01:38:12 10° E
STARLINK-1234 3.2 01:31:51 10° W 01:34:50 41° SSW 01:37:03 16° SE
Resurs 1-4 Rocket 2.6 01:31:01 10° NNE 01:36:12 53° E 01:40:11 17° S
STARLINK-1212 2.9 01:33:11 10° WNW 01:36:14 50° SSW 01:39:14 10° SE
STARLINK-1105 2.9 01:33:40 10° WNW 01:36:41 50° SSW 01:39:42 10° SE
DELTA 2 DEB (DPAF) 4.2 01:34:10 23° S 01:36:50 61° WSW 01:41:16 10° NNW
STARLINK-1232 3.5 01:32:43 10° WNW 01:36:54 87° SSW 01:41:03 10° ESE
Cosmos 1943 Rocket 4.0 01:32:22 10° W 01:36:54 25° NW 01:41:29 10° NNE
STARLINK-1209 3.3 01:34:07 10° W 01:37:06 39° SSW 01:38:42 22° SSE
STARLINK-1247 3.0 01:34:35 10° WNW 01:37:37 49° SSW 01:40:39 10° SE
STARLINK-1227 3.0 01:35:03 10° WNW 01:38:03 49° SSW 01:41:03 10° SE
Meteor 2-5 Rocket 4.0 01:35:17 21° SW 01:38:52 56° WNW 01:44:24 10° N
STARLINK-1226 3.0 01:35:53 10° WNW 01:38:55 48° SSW 01:41:56 10° SE
STARLINK-1224 3.9 01:34:55 10° W 01:39:03 69° N 01:43:12 10° E
STARLINK-1215 3.0 01:36:50 10° WNW 01:39:52 48° SSW 01:42:53 10° SE
STARLINK-52 4.2 01:39:41 24° SSE 01:40:12 26° SE 01:42:56 10° E
STARLINK-1217 3.0 01:38:36 10° WNW 01:41:38 46° SSW 01:44:38 10° SE
STARLINK-1208 3.5 01:37:41 10° WNW 01:41:51 84° SSW 01:46:00 10° ESE
STARLINK-1229 3.1 01:39:32 10° WNW 01:42:33 46° SSW 01:45:33 10° SE
STARLINK-1270 3.1 01:40:23 10° WNW 01:43:24 45° SSW 01:46:25 10° SE
NPP 4.2 01:38:20 10° NNE 01:43:38 53° E 01:47:57 15° S
STARLINK-1225 3.9 01:39:55 10° W 01:44:04 69° N 01:48:12 10° E
STARLINK-1189 3.1 01:42:14 10° WNW 01:45:14 44° SSW 01:48:14 10° SE
Meteor 1-29 4.3 01:42:30 10° N 01:45:31 29° WNW 01:47:11 19° WSW
STARLINK-1188 3.1 01:43:07 10° WNW 01:46:07 43° SSW 01:49:07 10° SE
STARLINK-1235 3.4 01:43:51 10° W 01:46:45 36° SSW 01:49:37 10° SE
STARLINK-1271 3.5 01:42:41 10° WNW 01:46:51 81° SSW 01:51:00 10° ESE
STARLINK-1187 3.2 01:44:15 10° W 01:47:11 39° SSW 01:50:06 10° SE
Cosmos 1898 Rocket 4.2 01:42:11 10° NNW 01:47:29 57° ENE 01:52:43 10° SE
STARLINK-1191 3.2 01:45:37 10° W 01:48:34 42° SSW 01:51:31 10° SE
Cosmos 2058 Rocket 4.0 01:44:50 10° NNW 01:48:49 34° W 01:51:01 21° SW
Lacrosse 4 Rocket 3.6 01:45:02 10° NNW 01:48:55 29° NE 01:52:44 10° ESE
STARLINK-1230 3.9 01:44:53 10° W 01:49:03 70° N 01:53:11 10° E
STARLINK-1221 3.2 01:46:29 10° W 01:49:26 41° SSW 01:52:23 10° SE
Starlink 7 placeholder 2.0 01:49:43 50° SE 01:49:43 50° SE 01:51:28 10° ENE
STARLINK-1222 3.2 01:47:23 10° W 01:50:20 41° SSW 01:53:16 10° SE
STARLINK-1214 3.2 01:48:17 10° W 01:51:14 40° SSW 01:54:10 10° SE
STARLINK-1154 3.5 01:47:40 10° WNW 01:51:50 78° SSW 01:55:58 10° ESE
SJ 16-02 1.8 01:48:43 10° NNW 01:53:09 65° ENE 01:57:32 10° SSE
STARLINK-1243 3.9 01:49:53 10° W 01:54:02 70° N 01:58:10 10° E
CZ-4C R/B 4.1 01:51:32 10° SSE 01:54:50 17° ESE 01:58:28 10° ENE
Cosmos 2084 4.2 01:52:18 20° S 01:54:57 43° SE 01:59:11 10° NE
SL-14 R/B 3.9 01:54:05 21° SW 01:56:13 41° WNW 01:59:55 10° N
SL-08 ROCKET BODY 4.3 01:52:05 18° S 01:56:34 85° W 02:02:28 10° N
STARLINK-1197 3.5 01:52:39 10° WNW 01:56:48 74° SSW 02:00:56 10° ESE
Cosmos 1937 Rocket 4.4 01:52:37 10° NNW 01:57:44 51° ENE 02:02:51 10° SE
Cosmos 1300 3.7 01:54:53 10° NNW 01:58:17 31° W 02:00:00 21° SW
STARLINK-1236 3.9 01:54:52 10° W 01:59:01 71° N 02:03:10 10° E
COSMOS 2455 3.1 01:54:47 15° SW 01:59:44 64° NW 02:05:46 10° NE
Meteor 2-10 Rocket 3.7 01:54:50 10° N 02:00:16 78° ENE 02:05:26 10° SSE
STARLINK-1198 3.5 01:57:36 10° WNW 02:01:45 71° SSW 02:05:52 10° ESE
Cosmos 921 Rocket 3.0 02:00:21 21° SSW 02:03:09 70° WNW 02:07:29 10° NNE
Cosmos 1174 4.3 02:03:35 16° WSW 02:05:57 44° NW 02:09:42 10° NNE
STARLINK-1199 3.5 02:02:37 10° WNW 02:06:45 68° SSW 02:10:52 10° ESE
Cosmos 1709 Rocket 4.2 02:01:48 12° S 02:07:23 71° E 02:13:30 10° NNE
Cosmos 1386 Rocket 4.5 02:02:40 17° SSW 02:07:29 75° WNW 02:13:40 10° N
STARLINK-1269 3.8 02:04:49 10° WNW 02:08:59 73° N 02:13:08 10° E
Cosmos 1626 Rocket 3.7 02:06:42 19° SSW 02:09:41 63° WNW 02:14:00 10° N
STARLINK-60 2.9 02:08:51 19° WSW 02:11:00 72° SSE 02:14:12 10° ENE
Cosmos 1626 3.5 02:09:03 16° WSW 02:11:13 27° WNW 02:14:28 10° N
STARLINK-1210 3.5 02:07:35 10° WNW 02:11:42 64° SSW 02:15:48 10° SE
STARLINK-1200 3.8 02:09:50 10° WNW 02:13:59 75° N 02:18:08 10° E
Cosmos 2219 3.3 02:09:28 10° NW 02:15:03 59° WSW 02:20:35 10° S
STARLINK-1219 3.6 02:12:34 10° WNW 02:16:41 61° SSW 02:20:45 10° SE
STARLINK-1192 3.8 02:14:49 10° WNW 02:18:59 76° N 02:23:08 10° E
Cosmos 1980 Rocket 4.3 02:16:32 10° SE 02:20:23 19° E 02:24:15 10° ENE
STARLINK-1211 3.6 02:17:32 10° WNW 02:21:38 58° SSW 02:25:41 10° SE
ERBS 4.0 02:20:45 10° NW 02:23:53 36° NNE 02:27:01 10° E
STARLINK-1244 3.8 02:19:47 10° WNW 02:23:56 78° N 02:28:06 10° E
Cosmos 192 4.4 02:20:35 15° SSW 02:24:43 79° ESE 02:29:43 10° NNE
UNK 4.4 02:22:20 15° SSW 02:25:43 37° W 02:30:01 10° NNW
ERS-2 3.5 02:22:35 10° SE 02:26:02 41° ENE 02:29:32 10° N
Cosmos 220 Rocket 4.3 02:22:56 16° SW 02:26:20 60° WNW 02:30:46 10° NNE
STARLINK-1363 4.5 02:24:56 15° S 02:26:30 22° SE 02:29:01 10° E
Cosmos 1437 4.1 02:24:54 15° WSW 02:26:36 24° WNW 02:29:09 10° NNW
STARLINK-1245 3.7 02:22:32 10° WNW 02:26:37 55° SSW 02:30:39 10° SE
STARLINK-1337 4.5 02:25:15 15° S 02:26:51 22° SE 02:29:22 10° E
STARLINK-1342 4.5 02:25:35 15° S 02:27:11 22° SE 02:29:42 10° E
STARLINK-1364 4.5 02:25:55 15° S 02:27:32 22° SE 02:30:03 10° E
STARLINK-1376 4.5 02:26:15 15° S 02:27:52 23° SE 02:30:24 10° E
AQUA 3.8 02:23:08 10° NNE 02:27:56 83° WNW 02:32:11 13° SSW
Cosmos 1812 Rocket 4.1 02:23:43 10° NNW 02:27:59 44° W 02:31:37 13° SSW
STARLINK-1360 4.5 02:26:30 15° S 02:28:08 23° SE 02:30:41 10° E
STARLINK-1361 4.5 02:26:56 15° S 02:28:35 23° SE 02:31:07 10° E
STARLINK-1367 4.5 02:27:10 15° S 02:28:51 23° SE 02:31:26 10° E
STARLINK-1138 3.7 02:24:46 10° WNW 02:28:56 80° N 02:33:05 10° E
STARLINK-1366 4.4 02:27:33 15° S 02:29:13 23° SE 02:31:46 10° E
SL-4 R/B 2.3 02:24:45 10° WSW 02:29:31 74° SSE 02:34:10 10° E
CZ-4B R/B 3.6 02:25:19 10° NNE 02:30:27 78° WNW 02:35:12 13° SSW
Cosmos 2297 Rocket 2.3 02:25:04 10° NW 02:30:36 56° WSW 02:36:05 10° S
STARLINK-1233 3.7 02:27:31 10° WNW 02:31:33 52° SSW 02:35:35 10° SE
STARLINK-1203 3.8 02:27:34 10° WNW 02:31:49 82° NNE 02:36:01 10° ESE
STARLINK-1143 3.7 02:29:45 10° WNW 02:33:55 82° NNE 02:38:04 10° ESE
Cosmos 2082 3.7 02:28:38 10° NNW 02:34:21 89° ENE 02:40:00 10° SSE
Cosmos 990 Rocket 4.0 02:31:16 10° NNW 02:36:29 63° WSW 02:41:39 10° S
STARLINK-1204 3.8 02:32:31 10° WNW 02:36:32 49° SSW 02:40:32 10° SE
CBERS-1 4.1 02:32:09 10° NNE 02:37:19 85° ESE 02:42:27 10° SSW
ATLAS CENTAUR R/B 2.5 02:33:21 10° WSW 02:37:24 38° NW 02:41:12 10° NNE
STARLINK-1350 4.5 02:35:22 14° SSW 02:37:41 27° SE 02:40:41 10° E
FALCON 9 DEB 3.5 02:35:24 15° SW 02:37:59 48° SSE 02:41:21 10° ENE
STARLINK-1241 3.7 02:34:44 10° WNW 02:38:54 84° NNE 02:43:03 10° ESE
STARLINK-29 2.9 02:37:00 14° WSW 02:39:40 67° SSE 02:42:50 10° ENE
STARLINK-1352 4.4 02:37:40 14° SSW 02:40:06 29° SE 02:43:11 10° E
Cosmos 1455 2.5 02:37:09 10° NNW 02:40:46 46° W 02:44:16 11° SSW
STARLINK-1238 3.9 02:37:29 10° WNW 02:41:28 46° SSW 02:45:26 10° SE
STARLINK-1368 4.4 02:39:45 14° SSW 02:42:15 30° SE 02:45:22 10° E
Cosmos 1602 Rocket 4.3 02:39:06 13° SW 02:42:35 39° WNW 02:46:41 10° N
Cosmos 1825 Rocket 3.5 02:38:21 10° S 02:42:38 90° N 02:47:00 10° N
STARLINK-1239 3.7 02:39:42 10° WNW 02:43:52 87° NNE 02:48:03 10° ESE
STARLINK-1369 4.3 02:41:37 13° SSW 02:44:09 30° SE 02:47:16 10° E
ATLAS CENTAUR R/B 2.7 02:42:17 10° W 02:45:04 32° SW 02:50:37 10° SSE
Meteor 1-28 Rocket 3.7 02:42:05 10° SSE 02:45:49 62° ENE 02:49:33 10° N
Cosmos 2263 Rocket 4.0 02:40:53 10° NNW 02:46:06 36° NE 02:51:15 10° ESE
SL-16 R/B 3.3 02:41:07 11° SSW 02:46:18 32° W 02:51:48 10° NNW
STARLINK-1201 3.9 02:42:30 10° WNW 02:46:26 43° SSW 02:50:22 10° SE
STARLINK-1372 4.3 02:43:57 13° SSW 02:46:37 31° SE 02:49:48 10° E
STARLINK-1378 4.2 02:46:05 13° SSW 02:48:49 32° SSE 02:52:02 10° E
STARLINK-1240 3.6 02:44:42 10° WNW 02:48:52 89° N 02:53:02 10° ESE
GP-B 3.4 02:44:46 10° N 02:49:08 54° W 02:53:27 10° SSW
STARLINK-1329 4.2 02:46:35 13° SSW 02:49:21 33° SSE 02:52:34 10° E
STARLINK-1365 4.2 02:47:17 13° SSW 02:50:04 34° SSE 02:53:18 10° E
IRS-1D 3.7 02:44:51 10° NNE 02:50:13 78° WNW 02:55:30 10° SSW
Cosmos 841 Rocket 4.4 02:45:37 10° S 02:50:35 45° ESE 02:55:34 10° NE
STARLINK-1379 4.2 02:48:13 12° SSW 02:51:03 33° SSE 02:54:16 10° E
STARLINK-1206 4.0 02:47:29 10° WNW 02:51:24 40° SSW 02:55:17 10° SE
STARLINK-1362 4.2 02:48:47 12° SSW 02:51:38 34° SSE 02:54:53 10° E
Cosmos-2242 3.2 02:48:09 10° NNW 02:52:20 53° W 02:56:28 10° S
ATLAS 5 CENTAUR R/B 3.7 02:52:18 10° NNW 02:53:17 12° N 02:54:21 10° NNE
Cosmos 1400 Rocket 3.0 02:49:22 10° N 02:53:30 78° ENE 02:57:38 10° SSE
STARLINK-1216 3.6 02:49:40 10° WNW 02:53:51 88° SSW 02:58:00 10° ESE
STARLINK-1373 4.1 02:50:59 12° SSW 02:53:55 35° SSE 02:57:12 10° E
Cosmos 2221 3.9 02:50:07 10° N 02:54:14 41° ENE 02:58:20 10° SE
ATLAS 3B R/B 4.1 02:50:55 10° WNW 02:55:06 17° WSW 02:59:21 10° SW
COBE Rocket 4.1 02:50:58 10° SSE 02:55:54 84° ENE 03:01:01 10° NNW
STARLINK-1390 4.1 02:52:59 12° SSW 02:55:58 36° SSE 02:59:15 10° E
STARLINK-1205 4.1 02:52:29 10° WNW 02:56:21 38° SW 03:00:12 10° SE
STARLINK-1237 3.6 02:54:40 10° WNW 02:58:50 85° SSW 03:02:59 10° ESE
RESURS DK-1 3.8 02:55:40 10° WSW 02:59:20 29° NW 03:03:01 10° NNE
Cosmos 2184 Rocket 4.3 02:54:06 10° S 03:00:14 70° E 03:06:22 10° NNE
STARLINK-1218 4.2 02:57:28 10° W 03:01:17 36° SW 03:05:05 10° SSE
SL-08 R/B 3.3 02:56:46 10° S 03:01:26 63° WSW 03:06:03 10° NNW
CZ-4C R/B 3.7 02:58:14 10° SSE 03:01:47 59° ENE 03:05:23 10° N
STARLINK-1202 3.6 02:59:39 10° WNW 03:03:49 82° SSW 03:07:58 10° ESE
IRS-P3 4.2 03:00:28 10° NNE 03:05:50 80° WNW 03:11:10 10° SSW
Cosmos 2227 Rocket 2.8 03:00:52 10° NW 03:06:01 36° WSW 03:11:07 10° S
STARLINK-1254 4.3 03:02:29 10° W 03:06:15 34° SW 03:09:59 10° SSE
Cosmos 1703 3.6 03:02:23 10° SSW 03:06:16 54° WNW 03:10:10 10° N
CZ-2D R/B 3.1 03:01:37 10° N 03:06:21 34° WNW 03:11:01 10° SW
Cosmos 2181 Rocket 4.4 03:00:39 10° NNW 03:06:49 51° W 03:13:00 10° SSW
ADEOS II 2.2 03:03:42 10° NNE 03:08:57 70° WNW 03:14:10 10° SSW
Cosmos 1763 Rocket 3.5 03:04:08 10° SSW 03:09:16 79° WNW 03:14:23 10° NNE
Cosmos 2150 Rocket 4.4 03:04:57 10° NNW 03:10:11 69° ENE 03:15:19 10° SSE
STARLINK-1231 4.3 03:07:31 10° W 03:11:13 31° SW 03:14:54 10° SSE
Cosmos 1697 Rocket 2.9 03:05:41 10° SSW 03:11:20 74° ESE 03:17:01 10° NNE
Cosmos 1315 Rocket 3.9 03:09:41 10° N 03:13:31 48° ENE 03:17:19 10° SSE
STARLINK-1246 3.6 03:09:36 10° WNW 03:13:45 76° SSW 03:17:54 10° ESE
CZ-2C R/B 3.9 03:12:11 10° NNE 03:15:42 40° E 03:19:13 10° S
Resurs 1-4 Rocket 3.3 03:11:17 10° N 03:15:48 29° WNW 03:20:18 10° WSW
STARLINK-52 2.9 03:12:52 10° WSW 03:16:04 88° NNW 03:19:18 10° ENE
STARLINK-1232 4.4 03:12:32 10° W 03:16:10 29° SW 03:19:46 10° SSE
STARLINK-1224 3.6 03:14:35 10° WNW 03:18:44 72° SSW 03:22:52 10° ESE
ARIANE 5 R/B 2.5 03:15:24 10° NNE 03:20:32 84° WNW 03:25:34 10° SSW
Cosmos 1758 Rocket 4.5 03:17:05 10° SW 03:21:02 34° WNW 03:25:04 10° N
ATLAS 2AS CENTAUR R/B 4.2 03:14:41 10° W 03:22:09 40° NNW 03:29:21 10° NE
